Location: Unspecified
(0.0000°N, 0.0000°E)
Time: 04:27:10
(UTC+00:00)

N. Korean satellite - Pass Details

Date: 08 August 2020
Orbit: 453 x 506 km, 97.2° (Epoch: 13 August)

Event Time Altitude Azimuth Distance (km) Brightness Sun altitude
Rises 04:30:01 0° 39° (NE) 2,535 11.1 -22.9°
Reaches altitude 10° 04:32:37 10° 60° (ENE) 1,670 10.3 -22.3°
Maximum altitude 04:35:00 17° 102° (ESE) 1,310 9.5 -21.7°
Drops below altitude 10° 04:37:24 10° 143° (SE) 1,693 9.5 -21.2°
Sets 04:40:03 0° 164° (SSE) 2,588 10.3 -20.5°
